TimeCST,TemperatureF,Dew PointF,Humidity,Sea Level PressureIn,VisibilityMPH,Wind Direction,Wind SpeedMPH,Gust SpeedMPH,PrecipitationIn,Events,Conditions,WindDirDegrees,DateUTC
12:53 AM,60.1,57.9,93,30.17,9.0,East,5.8,-,0.17,Rain,Light Rain,90,2013-01-10 06:53:00
1:53 AM,61.0,59.0,93,30.15,7.0,ENE,4.6,-,0.06,Rain,Rain,70,2013-01-10 07:53:00
2:20 AM,60.8,59.0,94,30.14,10.0,East,5.8,-,0.04,Rain,Light Rain,100,2013-01-10 08:20:00
2:38 AM,62.6,60.8,94,30.14,9.0,East,5.8,-,0.06,Rain,Light Rain,100,2013-01-10 08:38:00
2:53 AM,62.1,61.0,96,30.14,5.0,East,5.8,-,0.10,Rain,Rain,90,2013-01-10 08:53:00
3:11 AM,62.6,60.8,94,30.12,8.0,East,5.8,-,0.04,Rain,Light Rain,90,2013-01-10 09:11:00
4:53 AM,64.0,62.1,93,30.13,8.0,SE,3.5,-,0.09,Rain,Rain,130,2013-01-10 10:53:00
5:53 AM,62.6,62.6,100,30.11,4.0,East,4.6,-,N/A,Rain-Thunderstorm,Heavy Rain,80,2013-01-10 11:53:00
6:03 AM,62.6,62.6,100,30.10,5.0,East,3.5,-,0.04,Rain,Heavy Rain,80,2013-01-10 12:03:00
6:53 AM,63.0,62.1,97,30.12,4.0,Variable,3.5,-,0.24,Rain,Heavy Rain,0,2013-01-10 12:53:00
7:53 AM,63.0,61.0,93,30.15,4.0,East,5.8,-,0.27,Rain,Heavy Rain,100,2013-01-10 13:53:00
8:53 AM,63.0,61.0,93,30.06,8.0,East,16.1,25.3,0.22,Rain,Light Rain,80,2013-01-10 14:53:00
9:49 AM,62.6,60.8,94,30.02,6.0,East,17.3,23.0,0.02,Rain,Heavy Rain,90,2013-01-10 15:49:00
9:53 AM,63.0,60.1,90,30.04,10.0,ESE,10.4,23.0,0.02,,Mostly Cloudy,110,2013-01-10 15:53:00
10:53 AM,63.0,60.1,90,30.03,10.0,East,10.4,24.2,N/A,,Partly Cloudy,100,2013-01-10 16:53:00
11:12 AM,62.6,59.0,88,30.02,10.0,East,8.1,21.9,N/A,,Mostly Cloudy,90,2013-01-10 17:12:00
11:53 AM,64.0,59.0,84,30.01,10.0,Variable,4.6,19.6,N/A,,Scattered Clouds,0,2013-01-10 17:53:00
12:01 PM,64.4,59.0,83,30.01,10.0,SE,5.8,-,N/A,,Overcast,140,2013-01-10 18:01:00
12:53 PM,64.0,61.0,90,30.00,10.0,SSW,8.1,-,N/A,,Overcast,210,2013-01-10 18:53:00
1:25 PM,64.4,60.8,88,29.98,10.0,SSW,8.1,-,N/A,,Overcast,210,2013-01-10 19:25:00
1:53 PM,64.9,61.0,87,29.97,10.0,SSW,8.1,-,N/A,,Overcast,210,2013-01-10 19:53:00
2:28 PM,64.4,60.8,88,29.97,2.0,SSW,9.2,-,0.00,Rain,Rain,200,2013-01-10 20:28:00
2:49 PM,64.4,60.8,88,29.96,3.0,South,6.9,-,0.00,Rain,Light Rain,190,2013-01-10 20:49:00
2:53 PM,64.0,61.0,90,29.96,3.0,South,8.1,-,0.00,Rain,Light Rain,190,2013-01-10 20:53:00
3:00 PM,64.4,62.6,94,29.96,3.0,South,10.4,-,0.01,Rain,Light Rain,190,2013-01-10 21:00:00
3:12 PM,64.4,62.6,94,29.96,3.0,SSW,8.1,-,0.01,Rain,Light Rain,200,2013-01-10 21:12:00
3:20 PM,64.4,62.6,94,29.96,2.0,SSW,9.2,-,0.02,Rain,Light Rain,200,2013-01-10 21:20:00
3:53 PM,64.0,62.1,93,29.96,2.0,South,10.4,-,0.02,Rain,Light Rain,190,2013-01-10 21:53:00
4:00 PM,64.4,62.6,94,29.96,10.0,South,10.4,-,0.00,,Overcast,190,2013-01-10 22:00:00
4:37 PM,64.4,60.8,88,29.95,10.0,South,8.1,-,0.00,,Overcast,180,2013-01-10 22:37:00
4:53 PM,64.0,61.0,90,29.95,10.0,South,9.2,-,0.00,,Overcast,190,2013-01-10 22:53:00
5:53 PM,64.9,61.0,87,29.96,10.0,South,8.1,-,N/A,,Overcast,180,2013-01-10 23:53:00
6:46 PM,64.4,60.8,88,29.97,4.0,SW,8.1,-,0.00,Rain,Light Rain,220,2013-01-11 00:46:00
6:53 PM,64.0,61.0,90,29.98,5.0,SSW,11.5,-,0.00,Rain,Light Rain,210,2013-01-11 00:53:00
7:24 PM,62.6,60.8,94,29.98,6.0,SW,10.4,-,0.00,,Overcast,220,2013-01-11 01:24:00
7:48 PM,62.6,60.8,94,29.99,10.0,SW,9.2,-,0.00,,Overcast,230,2013-01-11 01:48:00
7:53 PM,63.0,60.1,90,29.99,10.0,SW,8.1,-,0.00,,Overcast,230,2013-01-11 01:53:00
8:44 PM,62.6,60.8,94,30.02,7.0,SW,13.8,-,0.00,Rain,Light Rain,230,2013-01-11 02:44:00
8:53 PM,63.0,60.1,90,30.02,6.0,SW,10.4,-,0.00,,Overcast,220,2013-01-11 02:53:00
9:53 PM,62.1,60.1,93,30.02,10.0,SSW,6.9,-,0.01,,Overcast,200,2013-01-11 03:53:00
10:01 PM,62.6,59.0,88,30.01,10.0,SSW,5.8,-,N/A,,Overcast,200,2013-01-11 04:01:00
10:53 PM,62.6,59.0,88,30.02,10.0,SSW,5.8,-,N/A,,Overcast,200,2013-01-11 04:53:00
11:53 PM,61.0,57.9,90,30.04,10.0,South,5.8,-,N/A,,Mostly Cloudy,190,2013-01-11 05:53:00